When you browse on this site, cookies collect data to enhance your experience and personalize the content and advertising you see.
Visit our Privacy Policy to learn more. By continuing to use the site, you agree to this use of cookies and data.
  • In United Kingdom
  • List of Countries
  • For 7 days
  • Water Temperature
  • Satellite Maps
  • Weather Map
  • Weather Widgets
  • user-avatar
    Login

    Hourly Weather Vivcharove

    Today, 16 June, Sunday

    Time Temperature Precipitation Wind Pressure Humidity
    00:00 +22°C° 0 mm 1 mps 748 mmHg 86%
    01:00 +22°C° 0 mm 1 mps 748 mmHg 88%
    02:00 +21°C° 0 mm 1 mps 749 mmHg 89%
    03:00 +20°C° 0 mm 2 mps 749 mmHg 90%
    04:00 +20°C° 0 mm 2 mps 748 mmHg 90%
    05:00 +21°C° 0 mm 2 mps 748 mmHg 90%
    06:00 +21°C° 0 mm 2 mps 748 mmHg 89%
    07:00 +23°C° 0 mm 2 mps 748 mmHg 84%
    08:00 +25°C° 0 mm 2 mps 748 mmHg 79%
    09:00 +26°C° 0 mm 2 mps 749 mmHg 74%
    10:00 +26°C° 0.4 mm 3 mps 749 mmHg 74%
    11:00 +26°C° 0.4 mm 4 mps 749 mmHg 74%
    12:00 +26°C° 0.4 mm 5 mps 748 mmHg 74%
    13:00 +26°C° 0.3 mm 4 mps 748 mmHg 74%
    14:00 +26°C° 0.3 mm 4 mps 748 mmHg 74%
    15:00 +26°C° 0.3 mm 4 mps 748 mmHg 73%
    16:00 +26°C° 0.2 mm 5 mps 748 mmHg 75%
    17:00 +25°C° 0.2 mm 5 mps 748 mmHg 76%
    18:00 +23°C° 0.2 mm 5 mps 748 mmHg 78%
    19:00 +22°C° 0 mm 5 mps 749 mmHg 82%
    20:00 +20°C° 0 mm 4 mps 749 mmHg 86%
    21:00 +19°C° 0 mm 4 mps 749 mmHg 91%
    22:00 +18°C° 0 mm 3 mps 750 mmHg 92%
    23:00 +17°C° 0 mm 3 mps 750 mmHg 93%

    Tomorrow, 17 June, Monday

    Time Temperature Precipitation Wind Pressure Humidity
    00:00 +16°C° 0 mm 3 mps 750 mmHg 94%
    01:00 +16°C° 0 mm 3 mps 750 mmHg 94%
    02:00 +16°C° 0 mm 3 mps 750 mmHg 94%
    03:00 +16°C° 0 mm 3 mps 751 mmHg 94%
    04:00 +16°C° 0 mm 3 mps 751 mmHg 92%
    05:00 +17°C° 0 mm 3 mps 750 mmHg 90%
    06:00 +17°C° 0 mm 3 mps 750 mmHg 88%
    07:00 +19°C° 0 mm 3 mps 751 mmHg 81%
    08:00 +20°C° 0 mm 3 mps 751 mmHg 74%
    09:00 +22°C° 0 mm 3 mps 752 mmHg 67%
    10:00 +24°C° 0 mm 3 mps 752 mmHg 63%
    11:00 +25°C° 0 mm 3 mps 752 mmHg 59%
    12:00 +26°C° 0 mm 3 mps 752 mmHg 56%
    13:00 +27°C° 0 mm 3 mps 751 mmHg 55%
    14:00 +27°C° 0 mm 3 mps 751 mmHg 54%
    15:00 +27°C° 0 mm 3 mps 751 mmHg 53%
    16:00 +27°C° 0 mm 3 mps 751 mmHg 55%
    17:00 +27°C° 0 mm 2 mps 751 mmHg 58%
    18:00 +26°C° 0 mm 2 mps 751 mmHg 61%
    19:00 +25°C° 0 mm 2 mps 751 mmHg 66%
    20:00 +23°C° 0 mm 2 mps 751 mmHg 71%
    21:00 +20°C° 0 mm 2 mps 752 mmHg 76%
    22:00 +20°C° 0 mm 1 mps 752 mmHg 78%
    23:00 +20°C° 0 mm 1 mps 752 mmHg 80%

    Day after tomorrow, 18 June, Tuesday

    Time Temperature Precipitation Wind Pressure Humidity
    00:00 +17°C° 0 mm 0 mps 752 mmHg 83%
    01:00 +17°C° 0 mm 0 mps 752 mmHg 83%
    02:00 +16°C° 0 mm 0 mps 752 mmHg 83%
    03:00 +16°C° 0 mm 0 mps 752 mmHg 83%
    04:00 +17°C° 0 mm 0 mps 752 mmHg 81%
    05:00 +18°C° 0 mm 0 mps 752 mmHg 79%
    06:00 +19°C° 0 mm 0 mps 752 mmHg 77%
    07:00 +20°C° 0 mm 0 mps 752 mmHg 71%
    08:00 +24°C° 0 mm 1 mps 752 mmHg 66%
    09:00 +25°C° 0 mm 1 mps 752 mmHg 61%
    10:00 +26°C° 0 mm 1 mps 752 mmHg 58%
    11:00 +27°C° 0 mm 1 mps 752 mmHg 54%
    12:00 +28°C° 0 mm 1 mps 752 mmHg 51%
    13:00 +28°C° 0 mm 1 mps 751 mmHg 51%
    14:00 +28°C° 0 mm 1 mps 751 mmHg 51%
    15:00 +28°C° 0 mm 1 mps 751 mmHg 51%
    16:00 +28°C° 0 mm 1 mps 750 mmHg 55%
    17:00 +28°C° 0 mm 1 mps 750 mmHg 58%
    18:00 +28°C° 0 mm 1 mps 750 mmHg 61%
    19:00 +26°C° 0 mm 1 mps 750 mmHg 66%
    20:00 +24°C° 0 mm 1 mps 750 mmHg 72%
    21:00 +20°C° 0 mm 0 mps 750 mmHg 77%
    22:00 +20°C° 0 mm 0 mps 750 mmHg 79%
    23:00 +19°C° 0 mm 0 mps 750 mmHg 81%

    19 June, Wednesday

    Time Temperature Precipitation Wind Pressure Humidity
    00:00 +19°C° 0 mm 0 mps 750 mmHg 83%
    01:00 +19°C° 0 mm 0 mps 750 mmHg 85%
    02:00 +20°C° 0 mm 1 mps 750 mmHg 87%
    03:00 +20°C° 0 mm 1 mps 750 mmHg 89%
    04:00 +20°C° 0 mm 1 mps 750 mmHg 88%
    05:00 +21°C° 0 mm 1 mps 750 mmHg 88%
    06:00 +21°C° 0 mm 1 mps 751 mmHg 87%
    07:00 +23°C° 0.1 mm 1 mps 751 mmHg 83%
    08:00 +24°C° 0.1 mm 1 mps 751 mmHg 78%
    09:00 +26°C° 0.1 mm 1 mps 751 mmHg 74%
    10:00 +26°C° 0.6 mm 2 mps 751 mmHg 70%
    11:00 +27°C° 0.6 mm 2 mps 751 mmHg 67%
    12:00 +28°C° 0.6 mm 3 mps 751 mmHg 64%
    13:00 +28°C° 0.7 mm 3 mps 751 mmHg 65%
    14:00 +28°C° 0.7 mm 4 mps 751 mmHg 67%
    15:00 +28°C° 0.7 mm 5 mps 751 mmHg 69%
    16:00 +27°C° 0.2 mm 5 mps 751 mmHg 69%
    17:00 +27°C° 0.2 mm 5 mps 751 mmHg 70%
    18:00 +27°C° 0.2 mm 5 mps 751 mmHg 71%
    19:00 +25°C° 0 mm 4 mps 751 mmHg 76%
    20:00 +23°C° 0 mm 4 mps 751 mmHg 80%
    21:00 +21°C° 0 mm 3 mps 751 mmHg 85%
    22:00 +21°C° 0 mm 3 mps 752 mmHg 86%
    23:00 +20°C° 0 mm 3 mps 752 mmHg 86%

    20 June, Thursday

    Time Temperature Precipitation Wind Pressure Humidity
    00:00 +19°C° 0 mm 3 mps 752 mmHg 87%
    01:00 +19°C° 0 mm 3 mps 752 mmHg 88%
    02:00 +18°C° 0 mm 3 mps 752 mmHg 89%
    03:00 +18°C° 0 mm 3 mps 752 mmHg 89%
    04:00 +18°C° 0 mm 4 mps 752 mmHg 87%
    05:00 +18°C° 0 mm 4 mps 752 mmHg 85%
    06:00 +19°C° 0 mm 4 mps 752 mmHg 82%
    07:00 +21°C° 0 mm 4 mps 753 mmHg 77%
    08:00 +22°C° 0 mm 4 mps 753 mmHg 72%
    09:00 +25°C° 0 mm 5 mps 753 mmHg 67%
    10:00 +26°C° 0 mm 5 mps 753 mmHg 63%
    11:00 +27°C° 0 mm 5 mps 753 mmHg 59%
    12:00 +28°C° 0 mm 5 mps 753 mmHg 56%
    13:00 +28°C° 0 mm 5 mps 753 mmHg 55%
    14:00 +28°C° 0 mm 5 mps 753 mmHg 55%
    15:00 +29°C° 0 mm 5 mps 753 mmHg 54%
    16:00 +28°C° 0 mm 4 mps 753 mmHg 57%
    17:00 +28°C° 0 mm 4 mps 752 mmHg 60%
    18:00 +28°C° 0 mm 4 mps 752 mmHg 63%
    19:00 +26°C° 0 mm 4 mps 753 mmHg 68%
    20:00 +24°C° 0 mm 3 mps 753 mmHg 74%
    21:00 +21°C° 0 mm 3 mps 753 mmHg 79%
    22:00 +20°C° 0 mm 3 mps 753 mmHg 80%
    23:00 +20°C° 0 mm 3 mps 753 mmHg 80%

    21 June, Friday

    Time Temperature Precipitation Wind Pressure Humidity
    00:00 +19°C° 0 mm 3 mps 753 mmHg 80%
    01:00 +19°C° 0 mm 3 mps 753 mmHg 82%
    02:00 +18°C° 0 mm 3 mps 754 mmHg 83%
    03:00 +18°C° 0 mm 3 mps 754 mmHg 84%
    04:00 +19°C° 0 mm 3 mps 754 mmHg 83%
    05:00 +19°C° 0 mm 3 mps 754 mmHg 82%
    06:00 +19°C° 0 mm 3 mps 754 mmHg 82%
    07:00 +21°C° 0 mm 3 mps 754 mmHg 76%
    08:00 +24°C° 0 mm 3 mps 754 mmHg 70%
    09:00 +26°C° 0 mm 3 mps 754 mmHg 64%
    10:00 +27°C° 0 mm 3 mps 754 mmHg 59%
    11:00 +29°C° 0 mm 3 mps 754 mmHg 54%
    12:00 +30°C° 0 mm 3 mps 754 mmHg 50%
    13:00 +30°C° 0 mm 3 mps 754 mmHg 49%
    14:00 +30°C° 0 mm 3 mps 754 mmHg 48%
    15:00 +30°C° 0 mm 3 mps 754 mmHg 47%
    16:00 +30°C° 0 mm 3 mps 754 mmHg 50%
    17:00 +30°C° 0 mm 3 mps 753 mmHg 53%
    18:00 +29°C° 0 mm 2 mps 753 mmHg 56%
    19:00 +27°C° 0 mm 2 mps 753 mmHg 60%
    20:00 +25°C° 0 mm 3 mps 754 mmHg 64%
    21:00 +22°C° 0 mm 3 mps 754 mmHg 68%
    22:00 +23°C° 0 mm 2 mps 754 mmHg 69%
    23:00 +21°C° 0 mm 2 mps 754 mmHg 69%
    Show more